When you browse on this site, cookies collect data to enhance your experience and personalize the content and advertising you see.
Visit our Privacy Policy to learn more. By continuing to use the site, you agree to this use of cookies and data.
  • In Hungary
  • List of Countries
  • For 7 days
  • Water Temperature
  • Satellite Maps
  • Weather Map
  • News
  • Weather Widgets
  • user-avatar
    Login

    Hourly Weather Copenhagen

    Today, 17 January, Thursday

    Time Temperature Precipitation Wind Pressure Humidity
    00:00 +3°C° 0.1 mm 10 mps 742 mmHg 85%
    01:00 +3°C° 0.1 mm 10 mps 741 mmHg 85%
    02:00 +3°C° 0.1 mm 9 mps 741 mmHg 83%
    03:00 +2°C° 0.1 mm 8 mps 741 mmHg 81%
    04:00 +3°C° 0.1 mm 7 mps 741 mmHg 78%
    05:00 +3°C° 0 mm 7 mps 740 mmHg 79%
    06:00 +2°C° 0 mm 7 mps 740 mmHg 80%
    07:00 +2°C° 0 mm 7 mps 740 mmHg 80%
    08:00 +2°C° 0 mm 7 mps 740 mmHg 81%
    09:00 +2°C° 0 mm 7 mps 741 mmHg 81%
    10:00 +2°C° 0 mm 7 mps 741 mmHg 81%
    11:00 +3°C° 0.2 mm 7 mps 741 mmHg 80%
    12:00 +3°C° 0.2 mm 7 mps 741 mmHg 80%
    13:00 +3°C° 0.2 mm 6 mps 741 mmHg 79%
    14:00 +2°C° 0.3 mm 6 mps 742 mmHg 79%
    15:00 +1°C° 0.3 mm 6 mps 743 mmHg 80%
    16:00 +1°C° 0.3 mm 6 mps 743 mmHg 80%
    17:00 -1°C° 0 mm 6 mps 744 mmHg 79%
    18:00 -2°C° 0 mm 7 mps 745 mmHg 78%
    19:00 -2°C° 0 mm 7 mps 745 mmHg 77%
    20:00 -2°C° 0.1 mm 7 mps 746 mmHg 77%
    21:00 -2°C° 0.1 mm 7 mps 747 mmHg 77%
    22:00 -2°C° 0.1 mm 8 mps 749 mmHg 77%
    23:00 -3°C° 0 mm 7 mps 750 mmHg 76%

    Tomorrow, 18 January, Friday

    Time Temperature Precipitation Wind Pressure Humidity
    00:00 -3°C° 0 mm 7 mps 751 mmHg 75%
    01:00 -3°C° 0 mm 7 mps 752 mmHg 74%
    02:00 -3°C° 0 mm 6 mps 753 mmHg 72%
    03:00 -3°C° 0 mm 6 mps 754 mmHg 70%
    04:00 -3°C° 0 mm 6 mps 754 mmHg 67%
    05:00 -2°C° 0 mm 5 mps 755 mmHg 66%
    06:00 -2°C° 0 mm 5 mps 756 mmHg 65%
    07:00 -1°C° 0 mm 4 mps 756 mmHg 64%
    08:00 -1°C° 0 mm 4 mps 757 mmHg 64%
    09:00 -1°C° 0 mm 4 mps 757 mmHg 64%
    10:00 -1°C° 0 mm 4 mps 758 mmHg 63%
    11:00 0°C° 0 mm 5 mps 758 mmHg 61%
    12:00 0°C° 0 mm 5 mps 758 mmHg 59%
    13:00 +1°C° 0 mm 5 mps 759 mmHg 56%
    14:00 +1°C° 0 mm 5 mps 759 mmHg 58%
    15:00 0°C° 0 mm 5 mps 759 mmHg 60%
    16:00 0°C° 0 mm 5 mps 759 mmHg 62%
    17:00 0°C° 0 mm 5 mps 760 mmHg 63%
    18:00 -1°C° 0 mm 5 mps 760 mmHg 64%
    19:00 -1°C° 0 mm 5 mps 760 mmHg 65%
    20:00 -1°C° 0 mm 5 mps 760 mmHg 66%
    21:00 -1°C° 0 mm 5 mps 761 mmHg 68%
    22:00 -1°C° 0 mm 5 mps 761 mmHg 69%
    23:00 -1°C° 0 mm 5 mps 761 mmHg 71%

    Day after tomorrow, 19 January, Saturday

    Time Temperature Precipitation Wind Pressure Humidity
    00:00 -1°C° 0 mm 5 mps 761 mmHg 73%
    01:00 -1°C° 0 mm 5 mps 761 mmHg 75%
    02:00 -1°C° 0 mm 5 mps 761 mmHg 76%
    03:00 -1°C° 0 mm 5 mps 761 mmHg 77%
    04:00 -1°C° 0 mm 5 mps 761 mmHg 78%
    05:00 -1°C° 0 mm 5 mps 762 mmHg 78%
    06:00 -1°C° 0 mm 5 mps 762 mmHg 79%
    07:00 -1°C° 0 mm 4 mps 762 mmHg 80%
    08:00 -1°C° 0 mm 4 mps 762 mmHg 79%
    09:00 -1°C° 0 mm 4 mps 762 mmHg 79%
    10:00 0°C° 0 mm 4 mps 762 mmHg 78%
    11:00 0°C° 0 mm 4 mps 762 mmHg 76%
    12:00 0°C° 0 mm 4 mps 762 mmHg 74%
    13:00 +2°C° 0 mm 3 mps 762 mmHg 71%
    14:00 +1°C° 0 mm 3 mps 762 mmHg 73%
    15:00 +1°C° 0 mm 3 mps 762 mmHg 76%
    16:00 +1°C° 0 mm 2 mps 762 mmHg 78%
    17:00 +1°C° 0 mm 2 mps 762 mmHg 79%
    18:00 +1°C° 0 mm 2 mps 762 mmHg 81%
    19:00 -1°C° 0 mm 2 mps 762 mmHg 83%
    20:00 -1°C° 0 mm 2 mps 762 mmHg 84%
    21:00 -1°C° 0 mm 2 mps 762 mmHg 85%
    22:00 -1°C° 0 mm 2 mps 762 mmHg 86%
    23:00 -1°C° 0 mm 2 mps 762 mmHg 87%

    20 January, Sunday

    Time Temperature Precipitation Wind Pressure Humidity
    00:00 -1°C° 0 mm 2 mps 762 mmHg 88%
    01:00 -1°C° 0 mm 2 mps 762 mmHg 89%
    02:00 -1°C° 0 mm 2 mps 762 mmHg 89%
    03:00 -1°C° 0 mm 2 mps 762 mmHg 90%
    04:00 -1°C° 0 mm 2 mps 762 mmHg 91%
    05:00 -1°C° 0 mm 2 mps 762 mmHg 91%
    06:00 -1°C° 0 mm 2 mps 762 mmHg 91%
    07:00 -1°C° 0 mm 3 mps 762 mmHg 91%
    08:00 -1°C° 0 mm 3 mps 762 mmHg 90%
    09:00 0°C° 0 mm 3 mps 763 mmHg 89%
    10:00 0°C° 0 mm 3 mps 763 mmHg 88%
    11:00 0°C° 0.1 mm 4 mps 763 mmHg 85%
    12:00 0°C° 0.1 mm 4 mps 763 mmHg 82%
    13:00 +1°C° 0.1 mm 5 mps 763 mmHg 79%
    14:00 0°C° 0 mm 5 mps 764 mmHg 78%
    15:00 0°C° 0 mm 5 mps 764 mmHg 78%
    16:00 -1°C° 0 mm 5 mps 764 mmHg 77%
    17:00 -1°C° 0 mm 5 mps 764 mmHg 72%
    18:00 -2°C° 0 mm 5 mps 765 mmHg 66%
    19:00 -2°C° 0 mm 5 mps 765 mmHg 61%
    20:00 -3°C° 0 mm 4 mps 766 mmHg 60%
    21:00 -3°C° 0 mm 4 mps 766 mmHg 59%
    22:00 -3°C° 0 mm 4 mps 767 mmHg 58%
    23:00 -4°C° 0 mm 4 mps 767 mmHg 59%

    21 January, Monday

    Time Temperature Precipitation Wind Pressure Humidity
    00:00 -4°C° 0 mm 3 mps 768 mmHg 60%
    01:00 -4°C° 0 mm 3 mps 768 mmHg 62%
    02:00 -3°C° 0 mm 2 mps 768 mmHg 62%
    03:00 -3°C° 0 mm 2 mps 768 mmHg 62%
    04:00 -1°C° 0 mm 1 mps 768 mmHg 62%
    05:00 -2°C° 0 mm 1 mps 769 mmHg 62%
    06:00 -3°C° 0 mm 0 mps 769 mmHg 63%
    07:00 -3°C° 0 mm 0 mps 769 mmHg 63%
    08:00 -2°C° 0 mm 0 mps 769 mmHg 61%
    09:00 -1°C° 0 mm 1 mps 770 mmHg 60%
    10:00 -1°C° 0 mm 1 mps 770 mmHg 58%
    11:00 0°C° 0 mm 1 mps 770 mmHg 55%
    12:00 -2°C° 0 mm 2 mps 770 mmHg 52%
    13:00 -1°C° 0 mm 2 mps 770 mmHg 49%
    14:00 -2°C° 0 mm 2 mps 770 mmHg 52%
    15:00 -2°C° 0 mm 3 mps 769 mmHg 55%
    16:00 -2°C° 0 mm 3 mps 769 mmHg 58%
    17:00 -2°C° 0 mm 3 mps 769 mmHg 60%
    18:00 -2°C° 0 mm 3 mps 768 mmHg 63%
    19:00 -3°C° 0 mm 4 mps 768 mmHg 65%
    20:00 -3°C° 0 mm 4 mps 768 mmHg 65%
    21:00 -3°C° 0 mm 4 mps 768 mmHg 65%
    22:00 -3°C° 0 mm 4 mps 768 mmHg 65%
    23:00 -3°C° 0 mm 4 mps 767 mmHg 65%

    22 January, Tuesday

    Time Temperature Precipitation Wind Pressure Humidity
    00:00 -4°C° 0 mm 5 mps 767 mmHg 66%
    01:00 -4°C° 0 mm 5 mps 767 mmHg 66%
    02:00 -4°C° 0 mm 5 mps 766 mmHg 67%
    03:00 -4°C° 0 mm 5 mps 765 mmHg 67%
    04:00 -4°C° 0 mm 5 mps 765 mmHg 68%
    05:00 -4°C° 0 mm 5 mps 764 mmHg 67%
    06:00 -4°C° 0 mm 5 mps 764 mmHg 66%
    07:00 -4°C° 0 mm 5 mps 763 mmHg 66%
    08:00 -4°C° 0 mm 5 mps 763 mmHg 65%
    09:00 -4°C° 0 mm 6 mps 763 mmHg 65%
    10:00 -4°C° 0 mm 6 mps 763 mmHg 65%
    11:00 -4°C° 0 mm 7 mps 762 mmHg 64%
    12:00 -3°C° 0 mm 7 mps 762 mmHg 64%
    13:00 -3°C° 0 mm 7 mps 761 mmHg 63%
    14:00 -4°C° 0 mm 8 mps 761 mmHg 63%
    15:00 -4°C° 0 mm 8 mps 760 mmHg 64%
    16:00 -4°C° 0 mm 8 mps 760 mmHg 64%
    17:00 -4°C° 0 mm 8 mps 760 mmHg 64%
    18:00 -5°C° 0 mm 8 mps 760 mmHg 64%
    19:00 -5°C° 0 mm 9 mps 760 mmHg 64%
    20:00 -5°C° 0 mm 9 mps 760 mmHg 63%
    21:00 -5°C° 0 mm 8 mps 760 mmHg 62%
    22:00 -5°C° 0 mm 8 mps 760 mmHg 62%
    23:00 -5°C° 0 mm 8 mps 760 mmHg 61%
    Show more